OK1CMJ-5 Weather Reports


Display with metric or nautical units.
time (UTC)temp
F
wind
direction
speed
MPH
gust
MPH
rain 1hr
in
rain 24hr
in
rain mn
in
humidity
%
barometer
mb
20260505040734 51 181 0.0 1.0 0.00 0.04 0.00 99 1011.1
20260505035834 51 181 0.0 1.0 0.00 0.04 0.00 99 1010.8
20260505034934 51 181 0.0 1.0 0.00 0.04 0.00 99 1010.9
20260505034034 51 278 0.0 1.0 0.00 0.04 0.00 99 1010.8
20260505033134 51 314 0.0 1.0 0.00 0.04 0.00 99 1010.9
20260505032234 51 314 0.0 1.0 0.00 0.04 0.00 99 1011.1
20260505031334 51 0 0.0 0.0 0.00 0.04 0.00 99 1011.2
20260505025534 51 0 0.0 0.0 0.00 0.04 0.00 99 1011.5
20260505024634 51 0 0.0 0.0 0.00 0.04 0.00 99 1011.5
20260505023734 51 314 0.0 1.0 0.00 0.04 0.00 99 1011.7
20260505022834 51 314 0.0 1.0 0.00 0.04 0.00 99 1011.8
20260505021934 51 314 0.0 1.0 0.00 0.04 0.00 99 1011.7
20260505020134 51 252 0.0 2.0 0.00 0.04 0.00 99 1011.7
20260505015234 51 189 0.0 2.0 0.00 0.04 0.00 99 1011.7
20260505014334 51 342 0.0 2.0 0.00 0.04 0.00 99 1011.7
20260505013434 51 296 0.0 1.0 0.00 0.04 0.00 98 1011.7
20260505011633 51 292 0.0 1.0 0.00 0.04 0.00 96 1011.6
20260505010733 51 294 0.0 1.0 0.00 0.04 0.00 96 1011.6
20260505005834 51 1 0.0 1.0 0.00 0.04 0.00 95 1011.8
20260505004934 51 1 0.0 2.0 0.00 0.04 0.00 94 1012.0
20260505004033 51 1 0.0 2.0 0.00 0.04 0.00 93 1012.1
20260505003134 51 1 0.0 2.0 0.00 0.04 0.00 92 1012.3
20260505002234 51 1 0.0 1.0 0.00 0.04 0.00 92 1012.3
20260505001334 51 1 0.0 1.0 0.00 0.04 0.00 92 1012.3
20260504235534 51 181 0.0 2.0 0.00 0.04 0.00 89 1012.6
20260504234633 51 1 0.0 2.0 0.00 0.04 0.00 88 1012.7
20260504232833 52 266 0.0 2.0 0.00 0.04 0.00 82 1012.7
20260504231933 52 1 0.0 2.0 0.00 0.04 0.00 82 1012.8
20260504231033 52 318 0.0 2.0 0.00 0.04 0.00 81 1012.8
20260504230133 52 314 0.0 2.0 0.00 0.04 0.00 79 1012.8
20260504224333 52 1 0.0 2.0 0.00 0.04 0.00 73 1013.1
20260504223433 52 1 0.0 2.0 0.00 0.04 0.00 70 1013.2
20260504222534 53 1 0.0 1.0 0.00 0.04 0.00 66 1013.2
20260504221633 53 1 0.0 2.0 0.00 0.04 0.00 65 1013.4
20260504220733 54 345 0.0 2.0 0.04 0.04 0.00 61 1013.4
20260504214033 56 314 1.0 2.0 0.04 0.04 0.04 50 1013.7
20260504212233 59 278 0.0 4.0 0.04 0.04 0.04 42 1014.0
20260504211334 60 346 2.0 4.0 0.02 0.02 0.02 38 1014.2
20260504210434 62 346 1.0 3.0 0.00 0.00 0.00 32 1014.2
20260504205533 61 331 1.0 5.0 0.00 0.00 0.00 32 1014.1
20260504204633 60 317 0.0 2.0 0.00 0.00 0.00 34 1014.1
20260504203733 60 265 0.0 2.0 0.00 0.00 0.00 36 1013.9
20260504202833 59 181 0.0 2.0 0.00 0.00 0.00 36 1013.9
20260504201934 59 181 0.0 2.0 0.00 0.00 0.00 35 1013.9
20260504200133 59 181 0.0 2.0 0.00 0.00 0.00 36 1013.8
20260504195233 59 181 0.0 1.0 0.00 0.00 0.00 35 1013.8
20260504194334 59 181 0.0 2.0 0.00 0.00 0.00 35 1013.9
20260504193433 60 181 0.0 2.0 0.00 0.00 0.00 35 1013.8
20260504192533 60 181 0.0 2.0 0.00 0.00 0.00 34 1014.0
20260504191633 60 181 0.0 2.0 0.00 0.00 0.00 34 1014.0
20260504190733 60 181 0.0 2.0 0.00 0.00 0.00 33 1013.9
20260504185833 60 181 0.0 2.0 0.00 0.00 0.00 32 1013.8
20260504184933 60 181 0.0 2.0 0.00 0.00 0.00 31 1013.7
20260504184034 61 181 0.0 2.0 0.00 0.00 0.00 28 1013.5
20260504183133 62 181 0.0 2.0 0.00 0.00 0.00 27 1013.5
20260504182233 63 181 0.0 1.0 0.00 0.00 0.00 24 1013.5
20260504181333 64 0 0.0 0.0 0.00 0.00 0.00 21 1013.3
20260504180433 66 0 0.0 0.0 0.00 0.00 0.00 16 1013.3
20260504175533 67 79 0.0 2.0 0.00 0.00 0.00 16 1013.2
20260504174633 67 17 0.0 2.0 0.00 0.00 0.00 16 1013.2
20260504173733 68 1 1.0 4.0 0.00 0.00 0.00 15 1013.2
20260504172833 69 337 2.0 4.0 0.00 0.00 0.00 13 1013.3
20260504170133 73 1 0.0 1.0 0.00 0.00 0.00 10 1013.4
20260504150433 82 355 1.0 5.0 0.00 0.00 0.00 10 1013.9
20260504141033 79 8 1.0 3.0 0.00 0.00 0.00 10 1014.3
20260504140133 78 339 1.0 3.0 0.00 0.00 0.00 10 1014.2
20260504130733 80 127 2.0 7.0 0.00 0.00 0.00 10 1014.6
20260504110133 76 340 2.0 8.0 0.00 0.00 0.00 10 1015.4
20260504081933 75 128 0.0 3.0 0.00 0.00 0.00 10 1016.3
20260504081033 73 332 2.0 4.0 0.00 0.00 0.00 10 1016.1
20260504080133 72 314 1.0 2.0 0.00 0.00 0.00 10 1015.9
20260504050133 50 318 1.0 3.0 0.00 0.00 0.00 60 1015.7